QPF
0.00 0.00 0.00 0.00 0.00 0.00 0.00 0.00 0.00 0.00 0.00 0.00 0.00 0.00 0.00 0.00 0.00 0.00 0.00 0.00 0.00 0.00 0.00 0.00 0.00 0.00 0.00 0.00 0.00 0.00 0.00 0.00
0.00 0.00 0.00 0.00 0.00 0.00 0.00 0.00 0.00 0.00 0.00 0.00 0.00 0.00 0.00 0.00 0.00 0.00 0.00 0.00 0.00 0.00 0.00 0.00 0.00 0.00 0.00 0.00 0.00 0.00 0.00 0.00
0.00 0.00 0.00 0.00 0.00 0.00 0.00 0.00 0.00 0.00 0.00 0.00 0.00 0.00 0.00 0.00 0.00 0.00 0.00 0.00 0.00 0.00 0.00 0.00 0.00 0.00 0.00 0.00 0.00 0.00 0.00 0.00
0.00 0.00 0.00 0.00 0.00 0.00 0.00 0.00 0.00 0.00 0.00 0.00 0.00 0.00 0.00 0.00 0.00 0.00 0.00 0.00 0.00 0.00 0.00 0.00 0.00 0.00 0.00 0.00 0.00 0.00 0.00 0.00
0.00 0.00 0.00 0.00 0.00 0.00 0.00 0.00 0.00 0.00 0.00 0.00 0.00 0.00 0.00 0.00 0.00 0.00 0.00 0.00 0.00 0.00 0.00 0.00 0.00 0.00 0.00 0.00 0.00 0.00 0.00 0.00
0.00 0.00 0.00 0.00 0.00 0.00 0.00 0.00 0.00 0.00 0.00 0.00 0.00 0.00 0.00 0.00 0.00 0.00 0.00 0.00 0.00 0.00 0.00 0.00 0.00 0.00 0.00 0.00 0.00 0.00 0.00 0.00
0.00 0.00 0.00 0.00 0.00 0.00 0.00 0.00 0.00 0.00 0.00 0.00 0.00 0.00 0.00 0.00 0.00 0.00 0.00 0.00 0.00 0.00 0.00 0.00 0.00 0.00 0.00 0.00 0.00 0.00 0.00 0.00
0.00 0.00 0.00 0.00 0.00 0.00 0.00 0.00 0.00 0.00 0.00 0.00 0.00 0.00 0.00 0.00 0.00 0.00 0.00 0.00 0.00 0.00 0.00 0.00 0.00 0.00 0.00 0.00 0.00 0.00 0.00 0.00
0.00 0.00 0.00 0.00 0.00 0.00 0.00 0.00 0.00 0.00 0.00 0.00 0.00 0.00 0.00 0.00 0.00 0.00 0.00 0.00 0.00 0.00 0.00 0.00 0.00 0.00 0.00 0.00 0.00 0.00 0.00 0.00
0.00 0.00 0.00 0.00 0.00 0.00 0.00 0.00 0.00 0.00 0.00 0.00 0.00 0.00 0.00 0.00 0.00 0.00 0.00 0.00 0.00 0.00 0.00 0.00 0.00 0.00 0.00 0.00 0.00 0.00 0.00 0.00
0.00 0.00 0.00 0.00 0.00 0.00 0.00 0.00 0.00 0.00 0.00 0.00 0.00 0.00 0.00 0.00 0.00 0.00 0.00 0.00 0.00 0.00 0.00 0.00 0.00 0.00 0.00 0.00 0.00 0.00 0.00 0.00
0.00 0.00 0.00 0.00 0.00 0.00 0.00 0.01 0.01 0.00 0.00 0.00 0.00 0.00 0.00 0.00 0.00 0.00 0.00 0.00 0.00 0.00 0.00 0.00 0.00 0.00 0.00 0.00 0.00 0.00 0.00 0.00
0.00 0.00 0.00 0.00 0.00 0.00 0.00 0.00 0.00 0.00 0.00 0.00 0.00 0.00 0.00 0.00 0.00 0.00 0.00 0.00 0.00 0.00 0.00 0.00 0.00 0.00 0.00 0.00 0.00 0.00 0.00 0.00
0.03 0.00 0.00 0.00 0.00 0.00 0.00 0.00 0.00 0.00 0.00 0.00 0.00 0.00 0.00 0.00 0.00 0.00 0.00 0.00 0.00 0.00 0.00 0.00 0.00 0.00 0.00 0.00 0.00 0.00 0.00 0.00
0.00 0.00 0.00 0.00 0.00 0.00 0.00 0.00 0.00 0.00 0.00 0.00 0.00 0.00 0.00 0.00 0.00 0.00 0.00 0.00 0.00 0.00 0.00 0.00 0.00 0.00 0.00 0.00 0.00 0.00 0.00 0.00
0.00 0.00 0.00 0.00 0.00 0.00 0.00 0.00 0.00 0.00 0.00 0.00 0.00 0.00 0.00 0.00 0.01 0.03 0.01 0.00 0.00 0.00 0.00 0.00 0.00 0.00 0.00 0.00 0.00 0.00 0.00 0.00
0.00 0.00 0.00 0.00 0.00 0.00 0.00 0.00 0.00 0.01 0.00 0.00 0.00 0.00 0.00 0.01 0.03 0.03 0.02 0.01 0.00 0.00 0.00 0.00 0.00 0.00 0.00 0.00 0.00 0.00 0.00 0.00
0.00 0.00 0.00 0.00 0.00 0.00 0.00 0.00 0.01 0.01 0.00 0.00 0.00 0.00 0.00 0.02 0.05 0.06 0.06 0.03 0.01 0.00 0.00 0.00 0.00 0.00 0.00 0.00 0.00 0.00 0.00 0.00
0.00 0.00 0.00 0.00 0.00 0.01 0.01 0.00 0.01 0.01 0.00 0.00 0.01 0.01 0.01 0.08 0.15 0.14 0.11 0.05 0.00 0.00 0.00 0.00 0.00 0.00 0.00 0.00 0.00 0.00 0.00 0.00
MSLP
1005.58 1006.58 1007.61 1008.52 1009.28 1009.93 1010.92 1011.94 1012.97 1013.81 1014.73 1015.54 1016.35 1016.94 1017.35 1017.55 1017.80 1017.95 1018.06 1018.49 1018.78 1019.32 1019.90 1020.49 1020.93 1021.13 1020.98 1020.82 1020.81 1020.98 1021.04 1020.88
1005.02 1006.24 1007.25 1008.30 1009.05 1009.88 1010.75 1011.44 1012.57 1013.34 1014.39 1015.34 1016.38 1017.10 1017.67 1018.03 1018.03 1018.13 1018.35 1018.84 1019.09 1019.41 1020.05 1020.60 1020.95 1021.10 1021.24 1021.08 1021.20 1021.40 1021.53 1021.47
1003.99 1005.17 1006.36 1007.18 1008.07 1009.09 1010.24 1011.27 1012.21 1013.00 1013.69 1014.48 1015.57 1016.72 1017.74 1018.11 1018.40 1018.45 1018.63 1018.99 1019.36 1019.79 1020.18 1020.64 1020.88 1021.26 1021.42 1021.36 1021.41 1021.84 1022.11 1021.86
1003.11 1004.12 1004.72 1006.10 1007.02 1007.87 1009.04 1010.50 1011.38 1012.34 1013.23 1014.35 1015.77 1016.96 1018.06 1018.59 1018.72 1018.85 1019.09 1019.34 1019.72 1020.07 1020.27 1020.60 1020.98 1021.29 1021.53 1021.78 1021.81 1021.86 1022.36 1022.38
1002.44 1003.60 1004.92 1005.19 1006.03 1007.39 1008.15 1009.13 1010.84 1011.96 1012.67 1013.69 1014.50 1015.33 1016.71 1017.89 1018.46 1018.74 1019.11 1019.41 1019.98 1020.16 1020.46 1020.78 1021.01 1021.09 1021.33 1021.58 1021.85 1022.04 1022.16 1022.43
1001.20 1002.17 1002.56 1003.94 1005.65 1006.82 1008.20 1009.48 1009.77 1010.02 1010.97 1012.33 1013.78 1015.39 1016.22 1017.20 1018.47 1019.14 1019.43 1019.77 1019.94 1020.24 1020.63 1021.02 1021.30 1021.41 1021.32 1021.61 1021.91 1022.41 1022.61 1022.64
999.37 1000.67 1003.02 1004.76 1005.84 1006.78 1007.69 1009.04 1010.10 1010.96 1012.11 1012.67 1013.06 1014.46 1015.72 1017.33 1018.49 1019.34 1019.88 1020.01 1020.12 1020.45 1020.77 1021.35 1021.48 1021.65 1021.72 1022.00 1022.30 1022.57 1022.95 1023.21
999.97 1001.12 1002.22 1003.38 1004.90 1006.04 1006.89 1007.97 1009.62 1010.74 1012.37 1012.62 1014.10 1014.82 1015.47 1016.40 1017.73 1018.87 1019.57 1020.27 1020.39 1020.72 1020.94 1021.30 1021.83 1021.84 1022.00 1022.32 1022.90 1022.94 1023.64 1023.69
1000.16 1000.89 1001.86 1003.00 1004.07 1005.69 1006.90 1007.83 1008.98 1009.93 1010.86 1012.20 1013.46 1013.80 1015.18 1016.17 1016.97 1018.04 1019.05 1019.60 1020.07 1020.67 1021.25 1021.49 1021.96 1021.96 1022.51 1022.62 1023.00 1023.55 1023.82 1023.93
1000.36 1001.55 1002.50 1003.41 1003.96 1005.11 1006.33 1007.74 1009.23 1010.34 1010.96 1011.58 1012.85 1013.69 1014.22 1015.25 1016.62 1017.76 1019.11 1019.61 1020.30 1020.93 1021.26 1021.82 1021.93 1022.33 1022.85 1023.17 1023.71 1024.28 1024.21 1024.40
1002.67 1002.77 1003.53 1004.48 1005.18 1005.46 1006.36 1007.30 1007.67 1008.66 1010.54 1011.33 1013.07 1013.60 1014.22 1015.44 1016.30 1017.24 1018.60 1019.45 1020.23 1020.88 1021.56 1021.84 1022.01 1022.52 1023.04 1023.36 1024.03 1024.24 1024.54 1024.86
1003.59 1003.98 1004.27 1005.06 1005.61 1006.00 1006.46 1007.08 1007.88 1008.84 1010.38 1011.05 1012.33 1013.46 1014.10 1014.82 1016.04 1017.11 1017.91 1019.08 1020.22 1020.72 1021.21 1021.79 1022.16 1022.79 1022.96 1023.50 1023.98 1024.51 1025.01 1024.92
1004.45 1004.86 1005.51 1006.22 1006.32 1006.26 1006.73 1007.33 1007.34 1008.24 1009.43 1010.75 1012.06 1012.90 1014.05 1014.65 1015.97 1016.71 1018.28 1019.36 1020.14 1021.07 1020.96 1022.07 1022.41 1022.70 1023.24 1023.56 1023.97 1024.51 1025.22 1025.25
1003.96 1004.59 1004.92 1006.23 1007.17 1007.41 1007.59 1007.71 1007.64 1008.67 1009.67 1010.77 1011.97 1012.97 1013.93 1014.99 1016.07 1016.77 1018.29 1019.34 1020.21 1021.03 1021.48 1022.48 1022.66 1022.78 1023.09 1023.85 1024.45 1024.97 1025.43 1025.52
1003.38 1003.58 1004.00 1005.36 1006.22 1007.10 1007.72 1008.38 1008.99 1008.74 1009.78 1010.81 1011.90 1012.90 1013.90 1014.89 1016.00 1017.28 1018.60 1019.30 1020.07 1021.06 1022.05 1022.55 1022.68 1022.89 1023.37 1024.08 1024.67 1025.50 1025.72 1026.05
1002.50 1002.85 1003.20 1002.84 1004.81 1005.78 1006.41 1007.47 1008.47 1008.98 1009.73 1010.93 1011.53 1012.76 1013.53 1014.71 1015.64 1017.29 1018.68 1019.62 1019.91 1021.21 1022.27 1022.62 1022.95 1023.00 1023.33 1024.07 1025.07 1025.66 1025.93 1026.47
1001.93 1002.07 1002.34 1002.54 1003.09 1004.16 1005.22 1006.04 1007.15 1008.35 1009.12 1010.46 1011.42 1012.43 1013.67 1014.56 1015.49 1017.22 1018.56 1019.84 1020.03 1021.17 1022.16 1022.59 1022.81 1023.02 1023.43 1024.11 1025.45 1025.73 1026.13 1026.81
1002.34 1001.95 1001.85 1001.75 1002.03 1002.69 1003.54 1004.73 1005.92 1007.60 1008.07 1009.76 1011.28 1012.04 1012.91 1014.12 1015.72 1016.80 1018.57 1019.18 1019.93 1021.32 1022.09 1022.49 1022.69 1022.79 1023.32 1024.24 1025.66 1026.12 1026.51 1027.02
1002.06 1001.58 1001.55 1001.46 1001.87 1002.67 1003.74 1004.42 1005.05 1006.53 1007.69 1008.98 1010.67 1011.86 1013.12 1014.53 1015.49 1016.66 1018.26 1018.41 1019.34 1020.40 1021.40 1022.08 1022.49 1022.77 1023.23 1024.34 1025.83 1026.22 1026.88 1027.01
Thickness
5692 5684 5676 5670 5663 5659 5650 5639 5630 5625 5617 5611 5604 5600 5597 5595 5592 5590 5588 5582 5578 5573 5566 5558 5553 5549 5547 5545 5542 5537 5532 5530
5688 5680 5672 5664 5659 5652 5644 5636 5625 5619 5611 5603 5596 5588 5583 5582 5580 5578 5575 5570 5567 5563 5556 5548 5542 5538 5535 5533 5528 5522 5517 5513
5689 5680 5671 5666 5657 5648 5636 5628 5618 5611 5606 5600 5590 5581 5573 5569 5566 5566 5563 5559 5554 5549 5544 5538 5533 5528 5523 5520 5515 5507 5500 5497
5685 5678 5675 5663 5655 5646 5634 5622 5612 5607 5600 5589 5576 5566 5556 5553 5553 5552 5550 5546 5541 5537 5534 5529 5523 5518 5512 5505 5501 5497 5489 5483
5677 5671 5664 5664 5655 5641 5631 5622 5605 5599 5593 5585 5578 5572 5560 5549 5545 5543 5540 5535 5528 5526 5522 5516 5512 5508 5503 5496 5490 5485 5481 5474
5677 5670 5669 5659 5645 5637 5622 5606 5607 5603 5597 5585 5572 5559 5552 5545 5534 5529 5525 5522 5519 5514 5508 5503 5498 5494 5491 5486 5480 5473 5468 5464
5686 5676 5655 5641 5633 5626 5617 5603 5593 5585 5576 5571 5568 5555 5542 5531 5521 5514 5510 5509 5507 5503 5497 5490 5486 5481 5478 5473 5468 5464 5455 5449
5671 5662 5653 5643 5630 5621 5613 5603 5588 5578 5563 5560 5543 5537 5532 5525 5515 5507 5501 5495 5494 5489 5485 5480 5473 5469 5466 5461 5454 5450 5442 5438
5656 5651 5644 5634 5624 5610 5602 5595 5583 5573 5565 5552 5539 5537 5523 5517 5511 5501 5493 5490 5485 5479 5472 5468 5461 5460 5453 5449 5444 5437 5432 5428
5640 5633 5624 5616 5612 5604 5594 5583 5571 5560 5553 5545 5533 5524 5521 5513 5500 5491 5481 5479 5471 5466 5460 5455 5453 5449 5442 5436 5430 5423 5420 5415
5599 5602 5599 5594 5585 5587 5582 5576 5574 5563 5545 5534 5517 5515 5510 5500 5492 5486 5476 5467 5460 5455 5447 5444 5443 5439 5432 5427 5420 5415 5408 5402
5580 5576 5580 5577 5570 5571 5568 5565 5557 5544 5531 5526 5514 5506 5502 5497 5487 5477 5469 5459 5450 5445 5441 5435 5433 5426 5424 5418 5411 5404 5396 5393
5559 5558 5554 5545 5550 5557 5555 5548 5543 5537 5529 5517 5508 5502 5494 5488 5476 5471 5456 5447 5440 5431 5434 5423 5420 5418 5413 5408 5403 5395 5385 5382
5548 5547 5544 5530 5528 5529 5530 5529 5530 5523 5513 5505 5497 5490 5482 5474 5466 5461 5447 5438 5430 5423 5419 5410 5409 5407 5404 5395 5389 5382 5375 5372
5543 5542 5537 5529 5525 5518 5515 5510 5505 5508 5498 5490 5482 5477 5470 5464 5457 5446 5433 5427 5421 5413 5404 5400 5399 5396 5392 5384 5378 5368 5365 5359
5541 5534 5533 5539 5525 5517 5513 5504 5495 5491 5486 5476 5473 5465 5462 5455 5449 5434 5422 5413 5413 5402 5392 5389 5386 5385 5381 5374 5365 5359 5355 5348
5534 5532 5527 5529 5526 5516 5511 5501 5492 5479 5475 5467 5459 5455 5448 5443 5437 5423 5412 5401 5400 5389 5380 5378 5377 5375 5369 5362 5351 5348 5344 5335
5510 5515 5517 5519 5520 5516 5511 5503 5484 5471 5472 5460 5448 5443 5441 5434 5421 5416 5401 5397 5389 5378 5373 5369 5368 5365 5358 5350 5338 5336 5331 5323
5493 5494 5497 5500 5496 5492 5486 5484 5479 5465 5457 5452 5440 5433 5429 5417 5412 5407 5393 5395 5384 5376 5369 5365 5361 5355 5350 5342 5326 5326 5320 5316